TimeCDT,TemperatureF,Dew PointF,Humidity,Sea Level PressureIn,VisibilityMPH,Wind Direction,Wind SpeedMPH,Gust SpeedMPH,PrecipitationIn,Events,Conditions,WindDirDegrees,DateUTC
12:52 AM,36.0,28.9,76,30.30,10.0,Calm,Calm,-,N/A,,Overcast,0,2013-03-29 05:52:00
1:52 AM,36.0,30.0,79,30.30,10.0,Calm,Calm,-,N/A,,Mostly Cloudy,0,2013-03-29 06:52:00
2:52 AM,35.1,30.0,82,30.29,9.0,Calm,Calm,-,N/A,,Mostly Cloudy,0,2013-03-29 07:52:00
3:52 AM,30.0,27.0,88,30.29,6.0,Calm,Calm,-,N/A,,Clear,0,2013-03-29 08:52:00
4:52 AM,28.9,25.0,85,30.28,7.0,Calm,Calm,-,N/A,,Clear,0,2013-03-29 09:52:00
5:52 AM,28.0,25.0,88,30.29,4.0,Calm,Calm,-,N/A,,Clear,0,2013-03-29 10:52:00
6:52 AM,27.0,24.1,89,30.30,5.0,Calm,Calm,-,N/A,,Clear,0,2013-03-29 11:52:00
7:52 AM,32.0,28.0,85,30.32,4.0,Calm,Calm,-,N/A,,Clear,0,2013-03-29 12:52:00
8:52 AM,39.0,30.9,73,30.32,6.0,Calm,Calm,-,N/A,,Haze,0,2013-03-29 13:52:00
9:52 AM,46.0,32.0,58,30.32,9.0,ENE,4.6,-,N/A,,Clear,70,2013-03-29 14:52:00
10:52 AM,50.0,28.9,44,30.31,10.0,SE,5.8,-,N/A,,Clear,140,2013-03-29 15:52:00
11:52 AM,52.0,30.0,43,30.31,10.0,Variable,3.5,-,N/A,,Clear,0,2013-03-29 16:52:00
12:52 PM,55.0,30.0,38,30.29,10.0,East,5.8,-,N/A,,Clear,80,2013-03-29 17:52:00
1:52 PM,57.0,30.9,37,30.27,10.0,Calm,Calm,-,N/A,,Clear,0,2013-03-29 18:52:00
2:52 PM,57.0,28.0,33,30.25,10.0,Variable,3.5,-,N/A,,Clear,0,2013-03-29 19:52:00
3:52 PM,57.9,28.9,33,30.23,10.0,Calm,Calm,-,N/A,,Clear,0,2013-03-29 20:52:00
4:52 PM,57.9,28.0,32,30.22,10.0,Calm,Calm,-,N/A,,Clear,0,2013-03-29 21:52:00
5:52 PM,57.0,28.0,33,30.22,10.0,East,5.8,-,N/A,,Clear,80,2013-03-29 22:52:00
6:52 PM,52.0,30.0,43,30.22,10.0,East,5.8,-,N/A,,Clear,100,2013-03-29 23:52:00
7:52 PM,43.0,30.9,62,30.22,10.0,ESE,4.6,-,N/A,,Clear,110,2013-03-30 00:52:00
8:52 PM,42.1,28.9,60,30.22,10.0,ESE,4.6,-,N/A,,Clear,110,2013-03-30 01:52:00
9:52 PM,42.1,30.0,62,30.23,10.0,East,5.8,-,N/A,,Clear,100,2013-03-30 02:52:00
10:52 PM,36.0,28.9,76,30.23,10.0,ESE,3.5,-,N/A,,Clear,120,2013-03-30 03:52:00
11:52 PM,37.9,28.9,70,30.22,10.0,East,4.6,-,N/A,,Clear,100,2013-03-30 04:52:00